Volver al catálogo

COSMOS 2143

ActivoMilitarPO
NORAD 21299·PAYLOAD·🇷🇺 Russia

Lanzado May 16, 1991 desde Plesetsk Cosmodrome

Loading…

Próximos Pases (próximas 24 horas)

TLE

ActualizadoSource: Space-Track

Época: Sep 14, 2026, 10:54 UTC

1 21299U 91033A   26257.45444543 -.00000001  00000-0 -61733-4 0  9991
2 21299  82.5699 245.5842 0012271 205.3876 323.1309 12.63930076629845

Sigue COSMOS 2143 en tiempo real con AllMySat

Download on the App Store